Home > Time Zones > World Clock > Weather > Russia > Ufa > Past weeks

Flag for Russia Weather past 2 weeks in Ufa, Russia

Now
48 °F

Sunny.


Feels Like: 48 °F
Forecast: 37 / 64 °F
Wind: No wind

Location: Ufa

Current Time: Sep 2, 2014 at 8:40:04 AM

Latest Report: Sep 2, 2014 at 8:00 AM


Visibility: 10 mi

Pressure: 30.30 "Hg

Humidity: 94%

Dew point: 46 °F

Location of UfaLocation

Historic Weather in Ufa — Graph

°F

Ufa temperature yesterday

Maximum temperature yesterday: 63 °F (at 2:30 PM)
Minimum temperature yesterday: 48 °F (at 11:30 PM)
Average temperature yesterday: 55 °F

Past Weeks' High & Low Weather Summary

 TemperatureHumidityPressure
High84 °F (Aug 20, 3:00 PM)100% (Aug 21, 5:00 AM)30.27 "Hg (Aug 21, 5:00 AM)
Low45 °F (Aug 26, 6:30 AM)45% (Aug 18, 8:00 PM)29.50 "Hg (Aug 29, 5:30 PM)
Average64 °F77%29.91 "Hg
* Reported Aug 18 7:00 AM — Sep 2 7:00 AM, Ufa, Weather by CustomWeather, © 2014

Note: Actual official high and low records may vary slightly from our data, if they occured in-between our weather recording intervals... More about our weather records

Advertising

Ufa weather history for previous 24 hours

 ConditionsComfort  
Time TempWeatherWind HumidityBarometerVisibility
7:00 AM
Sep 2
48 °FClear.1 mph94%30.27 "Hg10 mi
6:30 AM48 °FPassing clouds.3 mph94%30.27 "HgN/A
6:00 AM48 °FClear.3 mph94%30.27 "Hg10 mi
5:30 AM48 °FPassing clouds.3 mph94%30.27 "HgN/A
5:00 AM48 °FPassing clouds.3 mph94%30.27 "HgN/A
4:30 AM48 °FClear.1 mph94%30.24 "Hg10 mi
4:00 AM46 °FClear.3 mph93%30.24 "Hg10 mi
3:30 AM46 °FClear.6 mph93%30.24 "Hg10 mi
2:30 AM50 °FClear.No wind88%30.24 "Hg10 mi
2:00 AM48 °FPassing clouds.3 mph94%30.21 "HgN/A
1:30 AM48 °FClear.3 mph94%30.21 "Hg10 mi
1:00 AM46 °FClear.3 mph93%30.21 "Hg10 mi
12:30 AM46 °FClear.1 mph93%30.21 "Hg10 mi
12:00 AM48 °FClear.3 mph87%30.21 "Hg10 mi
11:30 PM
Sep 1
48 °FPartly cloudy.1 mph87%30.21 "HgN/A
11:00 PM50 °FPartly cloudy.3 mph88%30.21 "HgN/A
10:30 PM52 °FPartly cloudy.3 mph82%30.21 "HgN/A
10:00 PM50 °FPartly cloudy.1 mph82%30.18 "HgN/A
9:30 PM54 °FPartly cloudy.No wind77%30.18 "HgN/A
9:00 PM55 °FBroken clouds.1 mph72%30.18 "HgN/A
8:30 PM55 °FBroken clouds.3 mph72%30.18 "HgN/A
8:00 PM59 °FBroken clouds.3 mph68%30.18 "HgN/A
7:30 PM59 °FBroken clouds.6 mph59%30.18 "HgN/A
7:00 PM61 °FBroken clouds.6 mph55%30.18 "HgN/A
6:30 PM59 °FBroken clouds.6 mph55%30.18 "HgN/A
6:00 PM61 °FPartly sunny.6 mph52%30.15 "HgN/A
5:30 PM61 °FPartly sunny.8 mph52%30.15 "HgN/A
5:00 PM61 °FPartly sunny.8 mph52%30.15 "HgN/A
4:30 PM61 °FPartly sunny.8 mph52%30.15 "HgN/A
4:00 PM63 °FPartly sunny.8 mph49%30.15 "HgN/A
3:30 PM61 °FPartly sunny.8 mph52%30.15 "HgN/A
3:00 PM59 °FPartly sunny.10 mph55%30.15 "HgN/A
2:30 PM63 °FPartly sunny.10 mph52%30.15 "HgN/A
2:00 PM61 °FPartly sunny.10 mph59%30.15 "HgN/A
1:30 PM59 °FPartly sunny.10 mph63%30.12 "HgN/A
1:00 PM59 °FPartly sunny.8 mph59%30.12 "HgN/A
12:30 PM59 °FPartly sunny.6 mph59%30.12 "HgN/A
12:00 PM59 °FBroken clouds.10 mph63%30.12 "HgN/A
11:30 AM57 °FPartly sunny.10 mph63%30.12 "HgN/A
11:00 AM55 °FPartly sunny.10 mph77%30.12 "HgN/A
10:30 AM54 °FBroken clouds.8 mph88%30.09 "HgN/A
10:00 AM54 °FBroken clouds.10 mph88%30.09 "HgN/A
9:30 AM54 °FBroken clouds.10 mph88%30.09 "HgN/A
9:00 AM52 °FBroken clouds.8 mph94%30.07 "HgN/A
8:30 AM52 °FPartly sunny.6 mph94%30.07 "HgN/A
8:00 AM50 °FOvercast.6 mph94%30.04 "HgN/A
Weather by CustomWeather, © 2014

See weather overviewHow to use our weather pages